Location: Marseilles
(40.7010°N, 83.3930°W)
Time: 12:49:54
(UTC-05:00)

Cosmos 1459 Rocket - Visible Passes

Search period start: 22 December 2014 00:00
Search period end: 01 January 2015 00:00
Orbit: 939 x 999 km, 83.0° (Epoch: 20 December)

Date Brightness Start Highest point End Pass type
(mag) Time Alt. Az. Time Alt. Az. Time Alt. Az.
22 Dec 6.1 05:49:18 10° NNE 05:54:26 25° ENE 05:59:30 10° SE visible
22 Dec 4.0 19:16:48 10° SSE 19:22:46 53° E 19:22:49 53° E visible
22 Dec 6.0 21:03:30 10° WSW 21:07:28 23° W 21:07:28 23° W visible
23 Dec 5.2 06:12:12 10° N 06:18:14 42° ENE 06:24:11 10° SSE visible
23 Dec 5.5 17:59:31 10° ESE 18:01:57 13° ENE 18:03:06 12° ENE visible
23 Dec 3.9 19:39:58 10° S 19:46:10 89° W 19:47:45 54° N visible
23 Dec 6.6 21:29:27 10° W 21:32:21 13° WNW 21:32:23 13° WNW visible
24 Dec 6.9 04:54:07 10° NE 04:55:28 11° ENE 04:56:49 10° ENE visible
24 Dec 4.3 06:35:29 10° N 06:41:52 74° E 06:48:10 10° SSE visible
24 Dec 5.0 18:20:17 10° SE 18:24:59 23° E 18:28:05 16° NE visible
24 Dec 4.7 20:03:43 10° SSW 20:09:45 52° WNW 20:12:44 29° NNW visible
25 Dec 6.4 05:15:06 10° NNE 05:19:33 19° ENE 05:23:57 10° ESE visible
25 Dec 4.1 06:59:02 10° NNW 07:05:21 66° W 07:11:34 10° S visible
25 Dec 4.4 18:42:26 10° SSE 18:48:10 40° E 18:53:08 14° NNE visible
25 Dec 5.6 20:28:06 10° SW 20:33:29 30° WNW 20:37:47 15° NNW visible
26 Dec 5.6 05:37:45 10° N 05:43:26 33° ENE 05:49:02 10° SE visible
26 Dec 4.6 07:22:54 10° NNW 07:28:40 38° W 07:34:22 10° SSW visible
26 Dec 3.9 19:05:20 10° S 19:11:30 71° E 19:17:49 10° NNE visible
26 Dec 6.4 20:53:21 10° WSW 20:57:24 18° WNW 21:01:30 10° NNW visible
27 Dec 4.7 06:00:52 10° N 06:07:09 57° E 06:13:19 10° SSE visible
27 Dec 5.3 17:46:32 10° ESE 17:50:29 18° E 17:54:28 10° NE visible
27 Dec 4.3 19:28:49 10° SSW 19:35:00 68° W 19:41:19 10° N visible
28 Dec 6.6 04:41:09 10° NNE 04:44:37 15° ENE 04:48:03 10° E visible
28 Dec 4.0 06:24:18 10° N 06:30:42 84° W 06:36:59 10° S visible
28 Dec 4.7 18:08:14 10° SE 18:13:36 31° E 18:19:03 10° NNE visible
28 Dec 5.2 19:52:53 10° SW 19:58:39 39° WNW 20:04:33 10° N visible
29 Dec 6.0 05:03:23 10° NNE 05:08:35 26° ENE 05:13:43 10° SE visible
29 Dec 4.2 06:48:01 10° NNW 06:54:05 49° W 07:00:04 10° SSW visible
29 Dec 4.1 18:30:49 10° SSE 18:36:52 55° E 18:43:02 10° NNE visible
29 Dec 6.1 20:17:41 10° WSW 20:22:29 23° WNW 20:27:22 10° NNW visible
30 Dec 5.1 05:26:20 10° N 05:32:23 44° ENE 05:38:20 10° SSE visible
30 Dec 4.9 07:12:05 10° NNW 07:17:19 28° W 07:22:29 10° SW visible
30 Dec 4.0 18:54:02 10° S 19:00:17 86° W 19:06:41 10° N visible
30 Dec 6.7 20:43:46 10° W 20:46:31 13° WNW 20:49:16 10° NW visible
31 Dec 6.8 04:07:53 10° NE 04:09:38 11° ENE 04:11:23 10° E visible
31 Dec 4.1 05:49:37 10° N 05:56:00 76° E 06:02:16 10° SSE visible
31 Dec 4.8 19:17:49 10° SSW 19:23:52 50° WNW 19:30:02 10° N visible
